Chicago Midway, IL

5:39 PM CDT on April 24, 2017 (GMT -0500)
Chicago-Midway

Weather History for KMDW - February, 2013

Change the Weather History Date:

Friday, February 8, 2013

  Actual Average Record
Temperature  
Mean Temperature 29 °F 27 °F  
Max Temperature 33 °F 34 °F 61 °F (1990)
Min Temperature 25 °F 20 °F -12 °F (1933)
Degree Days  
Heating Degree Days 36 38  
Month to date heating degree days 341 311  
Since 1 July heating degree days 3455 3807  
Cooling Degree Days 0 0  
Month to date cooling degree days 0 0  
Year to date cooling degree days 0 0  
Moisture  
Dew Point 23 °F    
Average Humidity 79    
Maximum Humidity 89    
Minimum Humidity 66    
Precipitation  
Precipitation T in 0.07 in 0.81 in (2001)
Month to date precipitation 0.68 0.46  
Year to date precipitation 3.23 2.52  
Snow  
Snow 0.00 in - - ()
Snow Depth 1.00 in    
Sea Level Pressure  
Sea Level Pressure 30.26 in    
Wind  
Wind Speed 11 mph (NNW)    
Max Wind Speed 23 mph    
Max Gust Speed 30 mph    
Visibility 9 miles    
Events Snow    
T = Trace of Precipitation, MM = Missing Value Source: NWS Daily Summary

Daily Weather History Graph

Daily Weather History Graph

Search for Another Location

Airport or City:

Trip Planner

Search our weather history database for the weather conditions in past years. The results will help you decide how hot, cold, wet, or windy it might be!

Date:

Astronomy

Feb. 08, 2013 Rise Set
Actual Time 6:55 AM CST 5:15 PM CST
Civil Twilight 6:26 AM CST 5:44 PM CST
Nautical Twilight 5:53 AM CST 6:17 PM CST
Astronomical Twilight 5:20 AM CST 6:50 PM CST
Moon 5:24 AM CST (2/8) 3:48 PM CST (2/8)
Length of Visible Light 11h 18m
Length of Day
10h 20m
Waning Crescent, 3% of the Moon is Illuminated
Feb 8
Waning Crescent
Feb 10
New
Feb 17
First Quarter
Feb 25
Full
Mar 4
Last Quarter

Hourly Weather History & Observations

Time (CST) Temp. Windchill Dew Point Humidity Pressure Visibility Wind Dir Wind Speed Gust Speed Precip Events Conditions
12:13 AM 33.8 °F 23.9 °F 30.2 °F 87% 29.93 in 2.0 mi NNW 15.0 mph - N/A Snow Light Snow
12:51 AM 33.1 °F 23.9 °F 30.0 °F 89% 29.97 in 2.0 mi NNW 12.7 mph 23.0 mph 0.00 in Snow Light Snow
1:26 AM 32.0 °F 20.5 °F 28.4 °F 87% 29.96 in 4.0 mi NNW 18.4 mph - 0.00 in Snow Light Snow
1:51 AM 30.9 °F 20.7 °F 27.0 °F 85% 30.01 in 6.0 mi NNW 13.8 mph - 0.00 in Snow Light Snow
2:51 AM 28.0 °F 15.7 °F 24.1 °F 85% 30.05 in 8.0 mi NNW 17.3 mph 29.9 mph 0.00 in Snow Light Snow
3:51 AM 28.0 °F 16.1 °F 23.0 °F 81% 30.08 in 9.0 mi NNW 16.1 mph - 0.00 in Snow Light Snow
4:51 AM 26.1 °F 12.7 °F 21.0 °F 81% 30.12 in 10.0 mi NNW 18.4 mph - 0.00 in   Overcast
5:51 AM 26.1 °F 14.0 °F 21.0 °F 81% 30.15 in 10.0 mi NNW 15.0 mph - N/A   Overcast
6:51 AM 27.0 °F 13.9 °F 21.9 °F 81% 30.18 in 10.0 mi NNW 18.4 mph - N/A   Overcast
7:51 AM 27.0 °F 15.6 °F 21.9 °F 81% 30.22 in 10.0 mi NNW 13.8 mph 23.0 mph N/A   Overcast
8:51 AM 27.0 °F 14.3 °F 23.0 °F 85% 30.25 in 5.0 mi NNW 17.3 mph 20.7 mph 0.00 in Snow Light Snow
9:51 AM 28.0 °F 16.1 °F 23.0 °F 81% 30.28 in 9.0 mi NNW 16.1 mph - 0.00 in Snow Light Snow
10:51 AM 28.0 °F 17.5 °F 23.0 °F 81% 30.31 in 10.0 mi NNW 12.7 mph 20.7 mph 0.00 in Snow Light Snow
11:51 AM 28.0 °F 16.5 °F 23.0 °F 81% 30.31 in 10.0 mi NW 15.0 mph - 0.00 in   Overcast
12:51 PM 28.9 °F 17.7 °F 23.0 °F 78% 30.32 in 10.0 mi NNW 15.0 mph - N/A   Overcast
1:51 PM 30.0 °F 21.1 °F 24.1 °F 79% 30.33 in 10.0 mi NNW 10.4 mph - N/A   Overcast
2:51 PM 28.9 °F 19.2 °F 23.0 °F 78% 30.35 in 10.0 mi NNW 11.5 mph - N/A   Overcast
3:51 PM 28.9 °F 19.8 °F 23.0 °F 78% 30.36 in 10.0 mi NNW 10.4 mph - N/A   Overcast
4:17 PM 28.4 °F 19.7 °F 23.0 °F 80% 30.32 in 10.0 mi NNW 9.2 mph - N/A   Overcast
4:51 PM 28.0 °F 19.3 °F 21.9 °F 78% 30.38 in 10.0 mi NNW 9.2 mph - N/A   Overcast
5:51 PM 28.9 °F 21.1 °F 21.9 °F 75% 30.39 in 10.0 mi North 8.1 mph - N/A   Overcast
6:51 PM 28.0 °F 22.8 °F 21.9 °F 78% 30.40 in 10.0 mi NNW 4.6 mph - N/A   Overcast
7:51 PM 28.0 °F 21.7 °F 21.9 °F 78% 30.41 in 10.0 mi NNE 5.8 mph - N/A   Overcast
8:51 PM 28.0 °F - 21.0 °F 75% 30.41 in 10.0 mi Calm Calm - N/A   Overcast
9:51 PM 28.0 °F 22.8 °F 21.0 °F 75% 30.43 in 10.0 mi WNW 4.6 mph - N/A   Overcast
10:51 PM 28.0 °F - 21.0 °F 75% 30.42 in 10.0 mi Calm Calm - N/A   Overcast
11:51 PM 28.0 °F - 21.0 °F 75% 30.43 in 10.0 mi Calm Calm - N/A   Overcast